User: anonymous   Login
Location: Unspecified
(0.0000°N, 0.0000°E)
Time: 07:20:04
(UTC+00:00)
Language:

SICRAL 1 - Orbit

View from above orbital plane
View from above orbital plane
View from above satellite
View from above satellite

Ground track
Ground track

The orbit data is extracted from the following two-line orbital elements,

1 26694U 01005A   17227.19502839 0.00000000  00000-0  00000-0 0    02
2 26694   7.4119  50.1547 0003003  85.7547 274.3132  1.00270000    07
Epoch (UTC): 15 August 2017 04:40:50
Eccentricity: 0.0003003
inclination: 7.4119°
perigee height: 35774 km
apogee height: 35799 km
right ascension of ascending node: 50.1547°
argument of perigee: 85.7547°
revolutions per day: 1.00270000
mean anomaly at epoch: 274.3132°
orbit number at epoch: 0

The dashed part of the orbit path shows where the satellite is in the earth's shadow,  

DLR